Location: Ariel
(45.9570°N, 122.5700°W)
Time: 00:43:31
(UTC-07:00)

Transit 4A - Pass Details

Date: 22 July 2019
Orbit: 863 x 981 km, 66.8° (Epoch: 21 August)

Event Time Altitude Azimuth Distance (km) Brightness Sun altitude
Rises 11:54:29 0° 322° (NW) 3,667 10.7 59.2°
Reaches altitude 10° 11:57:12 10° 315° (NW) 2,703 10.1 59.5°
Maximum altitude 12:03:02 41° 248° (WSW) 1,337 9.2 60.1°
Drops below altitude 10° 12:08:41 10° 180° (S) 2,615 10.8 60.7°
Sets 12:11:17 0° 173° (S) 3,534 11.3 61.0°
